GW3653 Weather Reports


time (UTC)temp
F
wind
direction
speed
knots
gust
knots
rain 1hr
in
rain 24hr
in
rain mn
in
humidity
%
barometer
mb
20260510044538 70 0.0 1.7 0.00 0.01 0.01 61 1026.0
20260510043518 70 90 0.9 5.2 0.00 0.01 0.01 61 1026.3
20260510042538 69 248 0.9 2.6 0.00 0.01 0.01 62 1026.4
20260510041638 69 0.0 2.6 0.00 0.01 0.01 62 1026.5
20260510040518 68 0.0 3.5 0.00 0.01 0.01 63 1026.8
20260510035517 68 225 0.9 4.3 0.00 0.01 0.01 63 1026.9
20260510034518 67 248 0.9 3.5 0.00 0.01 0.01 63 1027.2
20260510033518 67 135 0.9 3.5 0.00 0.01 0.01 65 1027.3
20260510032517 66 45 0.9 3.5 0.00 0.01 0.01 65 1027.4
20260510031518 66 45 0.9 2.6 0.00 0.01 0.01 66 1027.6
20260510030557 65 0.0 1.7 0.00 0.01 0.01 69 1027.7
20260510025517 65 0.0 1.7 0.00 0.01 0.01 70 1027.7
20260510024517 64 113 0.9 2.6 0.00 0.01 0.01 70 1027.8
20260510023537 63 90 0.9 3.5 0.00 0.01 0.01 71 1028.0
20260510022517 63 0.0 1.7 0.00 0.01 0.01 73 1028.1
20260510021557 62 0.0 2.6 0.00 0.01 0.01 75 1028.2
20260510020517 61 0.0 1.7 0.00 0.01 0.01 75 1028.1
20260510015517 60 0.0 3.5 0.00 0.01 0.01 77 1028.2
20260510014537 59 0.0 1.7 0.00 0.01 0.01 78 1028.2
20260510013517 58 0.0 1.7 0.00 0.01 0.01 79 1028.4
20260510012517 57 0.0 0.9 0.00 0.01 0.01 80 1028.5
20260510011517 56 0.0 2.6 0.00 0.01 0.01 80 1028.5
20260510010517 56 0.0 0.9 0.00 0.01 0.01 81 1028.6
20260510005537 55 0.0 0.9 0.00 0.01 0.01 82 1028.6
20260510004539 54 0.0 0.9 0.00 0.01 0.01 83 1028.7
20260510003519 53 0.0 0.9 0.00 0.01 0.01 87 1028.6
20260510002519 52 0.0 0.9 0.00 0.01 0.01 90 1028.8
20260510001519 50 0.0 0.9 0.00 0.01 0.01 93 1028.8
20260510000519 48 0.0 0.9 0.00 0.01 0.01 93 1028.7
20260509235519 47 0.0 0.0 0.00 0.01 0.01 92 1028.7
20260509234518 46 0.0 0.0 0.00 0.01 0.01 91 1028.8
20260509233519 46 0.0 0.0 0.00 0.01 0.01 91 1028.7
20260509232519 46 0.0 0.0 0.00 0.01 0.01 92 1028.5
20260509231519 45 0.0 0.0 0.00 0.01 0.01 91 1028.6
20260509230519 45 0.0 0.0 0.00 0.01 0.01 91 1028.4
20260509225518 46 0.0 0.0 0.00 0.01 0.01 90 1028.4
20260509224519 46 0.0 0.0 0.00 0.01 0.01 90 1028.3
20260509223539 46 0.0 0.0 0.00 0.01 0.01 90 1028.3
20260509222539 47 0.0 0.0 0.00 0.01 0.01 90 1028.2
20260509221519 47 0.0 0.0 0.00 0.01 0.01 90 1028.2
20260509220519 48 0.0 0.0 0.00 0.01 0.01 90 1028.2
20260509215518 48 0.0 0.0 0.00 0.01 0.01 90 1028.0
20260509214519 48 0.0 0.0 0.00 0.01 0.01 90 1028.0
20260509213519 48 0.0 0.0 0.00 0.01 0.01 91 1028.0
20260509212519 48 0.0 0.0 0.00 0.01 0.01 91 1027.9
20260509211519 48 0.0 0.0 0.00 0.01 0.01 91 1027.8
20260509210519 49 0.0 0.0 0.00 0.01 0.01 90 1027.8
20260509205518 49 0.0 0.0 0.00 0.01 0.01 90 1027.8
20260509204518 49 0.0 0.0 0.00 0.01 0.01 91 1027.8
20260509203518 49 0.0 0.0 0.00 0.01 0.01 91 1027.7
20260509202518 49 0.0 0.0 0.00 0.01 0.01 91 1027.7
20260509201538 49 0.0 0.0 0.00 0.01 0.01 91 1027.7
20260509200518 49 0.0 0.0 0.00 0.01 0.01 91 1027.6
20260509195518 49 0.0 0.0 0.00 0.01 0.01 91 1027.6
20260509194518 49 0.0 0.0 0.00 0.01 0.01 91 1027.6
20260509193518 50 0.0 0.0 0.00 0.01 0.01 91 1027.6
20260509192519 50 0.0 0.0 0.00 0.01 0.01 91 1027.7
20260509191519 49 0.0 0.0 0.01 0.01 0.01 91 1027.7
20260509190518 49 0.0 0.0 0.01 0.01 0.01 91 1027.7
20260509185519 49 0.0 0.0 0.01 0.01 0.01 90 1027.7
20260509184518 50 0.0 0.0 0.01 0.01 0.01 90 1027.7
20260509183518 50 0.0 0.0 0.01 0.01 0.01 91 1027.6
20260509182518 50 0.0 0.0 0.01 0.01 0.01 90 1027.7
20260509181518 50 0.0 0.0 0.00 0.00 0.00 89 1027.9
20260509180518 50 0.0 0.0 0.00 0.00 0.00 89 1027.8
20260509175518 51 0.0 0.0 0.00 0.00 0.00 89 1027.8
20260509174519 51 0.0 0.0 0.00 0.00 0.00 89 1027.8
20260509173518 52 0.0 0.9 0.00 0.00 0.00 89 1028.0
20260509172518 52 0.0 0.0 0.00 0.00 0.00 90 1027.9
20260509171518 52 0.0 0.0 0.00 0.00 0.00 90 1027.8
20260509170518 52 0.0 2.6 0.00 0.00 0.00 90 1027.9
20260509165518 53 0.0 0.9 0.00 0.00 0.00 90 1028.0
20260509164518 53 0.0 0.9 0.00 0.00 0.00 90 1028.1
20260509163518 53 0.0 0.0 0.00 0.00 0.00 90 1028.2
20260509162518 53 0.0 0.0 0.00 0.00 0.00 90 1028.4
20260509161518 53 0.0 0.0 0.00 0.00 0.00 90 1028.4
20260509160518 53 0.0 0.0 0.00 0.00 0.00 89 1028.4
20260509155518 53 0.0 0.9 0.00 0.00 0.00 90 1028.4
20260509154518 53 0.0 0.0 0.00 0.00 0.00 89 1028.5
20260509153518 53 0.0 0.0 0.00 0.00 0.00 89 1028.5
20260509152518 53 0.0 0.0 0.00 0.00 0.00 89 1028.6
20260509151518 54 0.0 0.0 0.00 0.00 0.00 89 1028.7
20260509150518 54 0.0 0.0 0.00 0.00 0.00 89 1028.8
20260509145518 54 0.0 0.0 0.00 0.00 0.00 89 1028.8
20260509144519 54 0.0 0.0 0.00 0.00 0.00 89 1028.8
20260509143518 54 0.0 0.9 0.00 0.00 0.00 89 1028.9
20260509142519 54 0.0 0.0 0.00 0.00 0.00 88 1028.8
20260509141539 54 0.0 0.0 0.00 0.00 0.00 88 1028.8
20260509140518 54 0.0 0.9 0.00 0.00 0.00 88 1028.9
20260509135518 54 0.0 0.0 0.00 0.00 0.00 87 1028.9
20260509134518 54 0.0 0.9 0.00 0.00 0.00 87 1028.9
20260509133518 54 0.0 0.0 0.00 0.00 0.00 86 1028.8
20260509132518 54 0.0 0.9 0.00 0.00 0.00 86 1028.8
20260509131518 54 0.0 0.0 0.00 0.00 0.00 85 1028.8
20260509130538 55 0.0 0.0 0.00 0.00 0.00 85 1028.8
20260509125518 55 0.0 0.9 0.00 0.00 0.00 85 1028.7
20260509124518 55 0.0 0.9 0.00 0.00 0.00 85 1028.6
20260509123538 55 0.0 0.9 0.00 0.00 0.00 85 1028.7
20260509122518 55 0.0 0.9 0.00 0.00 0.00 85 1028.6
20260509121518 56 0.0 0.9 0.00 0.00 0.00 85 1028.7
20260509120518 56 0.0 0.9 0.00 0.00 0.00 84 1028.7
20260509115518 56 0.0 0.9 0.00 0.00 0.00 85 1028.7
20260509114518 56 0.0 0.9 0.00 0.00 0.00 85 1028.6
20260509113518 56 0.0 0.9 0.00 0.00 0.00 85 1028.6
20260509112538 56 0.0 0.9 0.00 0.00 0.00 85 1028.6
20260509111538 57 0.0 0.0 0.00 0.00 0.00 84 1028.5
20260509110518 57 0.0 0.9 0.00 0.00 0.00 84 1028.5
20260509105518 57 0.0 0.9 0.00 0.00 0.00 83 1028.5
20260509104518 58 0.0 0.9 0.00 0.00 0.00 83 1028.4
20260509103518 58 0.0 1.7 0.00 0.00 0.00 82 1028.3
20260509102518 58 0.0 1.7 0.00 0.00 0.00 82 1028.3
20260509101518 59 0.0 2.6 0.00 0.00 0.00 81 1028.2
20260509100518 59 68 0.9 2.6 0.00 0.00 0.00 81 1028.1
20260509095518 59 0.0 4.3 0.00 0.00 0.00 80 1028.0
20260509094558 59 90 0.9 6.1 0.00 0.00 0.00 79 1028.0
20260509093518 60 0.0 2.6 0.00 0.00 0.00 79 1027.9
20260509092518 60 0.0 1.7 0.00 0.00 0.00 78 1027.8
20260509091518 61 0.0 1.7 0.00 0.00 0.00 77 1027.8
20260509090518 62 90 0.9 4.3 0.00 0.00 0.00 76 1027.7
20260509085518 63 90 0.9 3.5 0.00 0.00 0.00 75 1027.6
20260509084518 63 113 0.9 3.5 0.00 0.00 0.00 74 1027.5
20260509083518 64 113 1.7 7.8 0.00 0.00 0.00 72 1027.3
20260509082538 65 90 0.9 5.2 0.00 0.00 0.00 71 1027.4
20260509081518 66 113 0.9 2.6 0.00 0.00 0.00 70 1027.5
20260509080518 67 113 0.9 4.3 0.00 0.00 0.00 66 1027.6
20260509075517 67 113 0.9 1.7 0.00 0.00 0.00 62 1027.6
20260509074517 68 0.0 2.6 0.00 0.00 0.00 59 1027.6
20260509073518 68 0.0 2.6 0.00 0.00 0.00 63 1027.6
20260509072558 68 90 0.9 2.6 0.00 0.00 0.00 62 1027.5
20260509071517 69 0.0 0.9 0.00 0.00 0.00 57 1027.5
20260509070518 69 0.0 1.7 0.00 0.00 0.00 55 1027.5
20260509065517 68 0.0 2.6 0.00 0.00 0.00 57 1027.5
20260509064518 68 0.0 0.9 0.00 0.00 0.00 57 1027.6
20260509063537 68 0.0 0.9 0.00 0.00 0.00 59 1027.6
20260509062517 68 113 0.9 1.7 0.00 0.00 0.00 57 1027.7
20260509061518 68 0.0 0.9 0.00 0.00 0.00 58 1027.8
20260509060517 68 0.0 0.9 0.00 0.00 0.00 58 1027.9
20260509055517 68 90 0.9 2.6 0.00 0.00 0.00 57 1028.1
20260509054517 68 0.0 3.5 0.00 0.00 0.00 57 1028.3
20260509053517 68 0.0 1.7 0.00 0.00 0.00 58 1028.3
20260509052517 68 0.0 1.7 0.00 0.00 0.00 60 1028.4
20260509051518 68 90 0.9 3.5 0.00 0.00 0.00 58 1028.5
20260509050539 67 135 0.9 3.5 0.00 0.00 0.00 57 1028.6
20260509045519 67 113 0.9 5.2 0.00 0.00 0.00 58 1028.9